Shelbyville, IN

9:00 AM EDT on July 26, 2017 (GMT -0400)
Shelbyville Municipal

Weather History for KGEZ - February, 2012

Change the Weather History Date:

Tuesday, February 14, 2012

  Actual Average Record
Temperature  
Mean Temperature 33 °F 31 °F  
Max Temperature 36 °F 39 °F 55 °F (2001)
Min Temperature 30 °F 23 °F 3 °F (2007)
Degree Days  
Heating Degree Days 32 34  
Month to date heating degree days 417 489  
Since 1 July heating degree days 3103 3718  
Cooling Degree Days 0 0  
Month to date cooling degree days 0 0  
Year to date cooling degree days 0 0  
Moisture  
Dew Point 29 °F    
Average Humidity 79    
Maximum Humidity 96    
Minimum Humidity 61    
Precipitation  
Precipitation 0.08 in 0.09 in 0.61 in (2005)
Month to date precipitation 0.42 1.21  
Year to date precipitation 4.00 3.60  
Sea Level Pressure  
Sea Level Pressure 29.91 in    
Wind  
Wind Speed 8 mph (SSW)    
Max Wind Speed 16 mph    
Max Gust Speed 21 mph    
Visibility 5 miles    
Events Snow    
T = Trace of Precipitation, MM = Missing Value Source: NWS Daily Summary

Daily Weather History Graph

Daily Weather History Graph

Search for Another Location

Airport or City:

Trip Planner

Search our weather history database for the weather conditions in past years. The results will help you decide how hot, cold, wet, or windy it might be!

Date:

Astronomy

Feb. 14, 2012 Rise Set
Actual Time 7:37 AM EST 6:18 PM EST
Civil Twilight 7:09 AM EST 6:45 PM EST
Nautical Twilight 6:38 AM EST 7:17 PM EST
Astronomical Twilight 6:06 AM EST 7:48 PM EST
Moon 1:21 AM EST (2/14) 11:23 AM EST (2/14)
Length of Visible Light 11h 36m
Length of Day
10h 40m
Waning Gibbous, 50% of the Moon is Illuminated
Feb 14
Waning Gibbous
Feb 14
Last Quarter
Feb 21
New
Feb 29
First Quarter
Mar 8
Full

Hourly Weather History & Observations

Time (EST) Temp. Windchill Dew Point Humidity Pressure Visibility Wind Dir Wind Speed Gust Speed Precip Events Conditions
12:31 AM 32.0 °F 22.1 °F 24.8 °F 75% 29.93 in 2.5 mi South 13.8 mph - 0.00 in Snow Light Snow
12:40 AM 30.2 °F 21.3 °F 26.6 °F 86% 29.93 in 0.8 mi South 10.4 mph - 0.00 in Snow Light Snow
12:53 AM 30.0 °F 21.1 °F 27.0 °F 88% 29.96 in 1.0 mi SSW 10.4 mph - 0.01 in Snow Light Snow
12:58 AM 30.2 °F 21.9 °F 26.6 °F 86% 29.93 in 2.0 mi South 9.2 mph - 0.00 in Snow Light Snow
1:08 AM 30.2 °F 23.4 °F 26.6 °F 86% 29.93 in 4.0 mi South 6.9 mph - 0.01 in Snow Light Snow
1:19 AM 30.2 °F 22.6 °F 26.6 °F 86% 29.92 in 1.8 mi South 8.1 mph - 0.01 in Snow Light Snow
1:39 AM 30.2 °F 23.4 °F 26.6 °F 86% 29.92 in 1.2 mi South 6.9 mph - 0.02 in Snow Light Snow
1:53 AM 30.0 °F 24.1 °F 28.0 °F 92% 29.93 in 0.8 mi South 5.8 mph - 0.03 in Snow Light Snow
2:02 AM 30.2 °F 23.4 °F 26.6 °F 86% 29.91 in 1.0 mi South 6.9 mph - 0.01 in Snow Light Snow
2:11 AM 30.2 °F 23.4 °F 26.6 °F 86% 29.90 in 2.0 mi South 6.9 mph - 0.01 in Snow Light Snow
2:23 AM 30.2 °F 22.6 °F 26.6 °F 86% 29.90 in 3.0 mi South 8.1 mph - 0.01 in Snow Light Snow
2:33 AM 30.2 °F 21.9 °F 26.6 °F 86% 29.89 in 3.0 mi SSE 9.2 mph - 0.01 in Snow Light Snow
2:43 AM 30.2 °F 22.6 °F 26.6 °F 86% 29.89 in 2.5 mi South 8.1 mph - 0.01 in Snow Light Snow
2:53 AM 30.0 °F 21.7 °F 27.0 °F 88% 29.91 in 2.0 mi SSE 9.2 mph - 0.02 in Snow Light Snow
3:08 AM 30.2 °F 22.6 °F 26.6 °F 86% 29.88 in 3.0 mi SSE 8.1 mph - 0.00 in Snow Light Snow
3:22 AM 30.2 °F 22.6 °F 26.6 °F 86% 29.88 in 2.0 mi SSE 8.1 mph - 0.00 in Snow Light Snow
3:41 AM 30.2 °F 22.6 °F 28.4 °F 93% 29.87 in 4.0 mi SSE 8.1 mph - 0.00 in Snow Light Snow
3:53 AM 30.9 °F 23.5 °F 28.0 °F 89% 29.89 in 6.0 mi SSE 8.1 mph - 0.00 in   Overcast
4:14 AM 30.2 °F 21.9 °F 28.4 °F 93% 29.86 in 2.5 mi South 9.2 mph - 0.00 in Snow Light Snow
4:24 AM 30.2 °F 22.6 °F 28.4 °F 93% 29.86 in 4.0 mi South 8.1 mph - 0.00 in Snow Light Snow
4:32 AM 30.2 °F 23.4 °F 28.4 °F 93% 29.86 in 6.0 mi South 6.9 mph - 0.00 in   Overcast
4:53 AM 30.9 °F 23.5 °F 28.0 °F 89% 29.88 in 3.0 mi South 8.1 mph - 0.00 in   Overcast
5:37 AM 32.0 °F 24.8 °F 28.4 °F 87% 29.85 in 2.5 mi South 8.1 mph - 0.00 in Snow Light Snow
5:53 AM 32.0 °F 24.2 °F 28.9 °F 88% 29.87 in 3.0 mi South 9.2 mph - 0.00 in Snow Light Snow
6:12 AM 32.0 °F 24.8 °F 28.4 °F 87% 29.85 in 2.5 mi South 8.1 mph - 0.00 in Snow Light Snow
6:21 AM 32.0 °F 24.2 °F 28.4 °F 87% 29.85 in 3.0 mi SSE 9.2 mph - 0.00 in Snow Light Snow
6:34 AM 32.0 °F 24.8 °F 28.4 °F 87% 29.85 in 4.0 mi South 8.1 mph - 0.00 in Snow Light Snow
7:08 AM 33.8 °F 27.0 °F 30.2 °F 87% 29.85 in 2.5 mi South 8.1 mph - 0.00 in Snow Light Snow
7:29 AM 33.8 °F 27.7 °F 30.2 °F 87% 29.85 in 3.0 mi South 6.9 mph - 0.00 in Snow Light Snow
7:53 AM 33.1 °F 26.9 °F 30.9 °F 92% 29.87 in 3.0 mi South 6.9 mph - 0.00 in Snow Light Snow
8:00 AM 33.8 °F 27.0 °F 30.2 °F 87% 29.85 in 2.5 mi South 8.1 mph - 0.00 in Snow Light Snow
8:33 AM 33.8 °F 27.7 °F 30.2 °F 87% 29.86 in 1.0 mi South 6.9 mph - 0.00 in Snow Light Snow
8:53 AM 33.1 °F 26.9 °F 30.9 °F 92% 29.89 in 1.0 mi South 6.9 mph - 0.02 in Snow Light Snow
9:53 AM 34.0 °F 28.8 °F 32.0 °F 92% 29.89 in 1.0 mi SSW 5.8 mph - 0.00 in Snow Light Snow
10:22 AM 33.8 °F 28.6 °F 30.2 °F 87% 29.87 in 2.5 mi South 5.8 mph - 0.00 in   Overcast
10:34 AM 33.8 °F 29.6 °F 30.2 °F 87% 29.87 in 3.0 mi SSW 4.6 mph - 0.00 in   Overcast
10:53 AM 34.0 °F 28.8 °F 30.9 °F 89% 29.89 in 4.0 mi South 5.8 mph - 0.00 in   Overcast
11:11 AM 33.8 °F 27.0 °F 30.2 °F 87% 29.87 in 5.0 mi SSW 8.1 mph - N/A   Overcast
11:29 AM 35.6 °F 29.9 °F 30.2 °F 81% 29.87 in 5.0 mi SSW 6.9 mph - N/A   Overcast
11:53 AM 35.1 °F 28.6 °F 30.9 °F 85% 29.90 in 6.0 mi SW 8.1 mph - N/A   Overcast
12:30 PM 35.6 °F 28.6 °F 30.2 °F 81% 29.88 in 10.0 mi WSW 9.2 mph - N/A   Overcast
12:53 PM 35.1 °F 28.6 °F 30.0 °F 82% 29.89 in 10.0 mi West 8.1 mph - N/A   Overcast
1:53 PM 36.0 °F 28.5 °F 30.0 °F 79% 29.89 in 10.0 mi West 10.4 mph - N/A   Overcast
2:53 PM 36.0 °F 29.0 °F 30.0 °F 79% 29.90 in 10.0 mi WSW 9.2 mph - N/A   Overcast
3:53 PM 36.0 °F 29.0 °F 30.0 °F 79% 29.92 in 10.0 mi West 9.2 mph - N/A   Overcast
4:44 PM 35.6 °F 29.2 °F 30.2 °F 81% 29.92 in 10.0 mi WSW 8.1 mph - N/A   Overcast
4:53 PM 36.0 °F 29.0 °F 30.0 °F 79% 29.95 in 10.0 mi West 9.2 mph - N/A   Overcast
5:19 PM 35.6 °F 29.9 °F 30.2 °F 81% 29.93 in 10.0 mi WSW 6.9 mph - N/A   Overcast
5:53 PM 35.1 °F 28.6 °F 30.0 °F 82% 29.97 in 10.0 mi WSW 8.1 mph - N/A   Overcast
6:53 PM 35.1 °F 29.3 °F 30.0 °F 82% 30.01 in 10.0 mi WSW 6.9 mph - N/A   Overcast
7:53 PM 35.1 °F 28.6 °F 30.0 °F 82% 30.04 in 10.0 mi WSW 8.1 mph - N/A   Overcast
8:53 PM 36.0 °F 30.3 °F 28.9 °F 76% 30.05 in 10.0 mi WSW 6.9 mph - N/A   Overcast
9:53 PM 35.1 °F 30.1 °F 28.9 °F 78% 30.07 in 10.0 mi SW 5.8 mph - N/A   Overcast
10:53 PM 35.1 °F 32.2 °F 30.0 °F 82% 30.09 in 10.0 mi SSW 3.5 mph - N/A   Overcast
11:53 PM 35.1 °F 30.1 °F 28.9 °F 78% 30.10 in 10.0 mi WSW 5.8 mph - N/A   Overcast